Overview Statistics Trail Chart Weather Telemetry Raw packets
 

This is the latest recevied weather packets stored in our database for station/object OK2ILA-10. If no packets are shown the sender has not sent any weather packets the latest 10 day(s).

<< 7 8 9 10 11 12 13 >>
Time Temp. Humidity Pressure Rain* Wind** Luminosity Snow
1788605523 21.67° C 48% 1019.2 hPa - - - -
1788604927 21.67° C 49% 1019.1 hPa - - - -
1788604923 21.67° C 49% 1019.1 hPa - - - -
1788604327 21.11° C 51% 1019.3 hPa - - - -
1788604323 21.11° C 51% 1019.3 hPa - - - -
1788603726 20° C 53% 1019.4 hPa - - - -
1788603722 20° C 53% 1019.4 hPa - - - -
1788603126 20° C 53% 1019.4 hPa - - - -
1788603122 20° C 53% 1019.4 hPa - - - -
1788602526 20° C 53% 1019.5 hPa - - - -
1788602522 20° C 53% 1019.5 hPa - - - -
1788601926 20° C 53% 1019.4 hPa - - - -
1788601922 20° C 53% 1019.4 hPa - - - -
1788601326 21.11° C 53% 1019.4 hPa - - - -
1788601322 21.11° C 53% 1019.4 hPa - - - -
1788600725 21.11° C 54% 1019.2 hPa - - - -
1788600721 21.11° C 54% 1019.2 hPa - - - -
1788600121 21.11° C 55% 1019 hPa - - - -
1788599524 20.56° C 56% 1019.2 hPa - - - -
1788599520 20.56° C 56% 1019.2 hPa - - - -
1788598924 20.56° C 57% 1019.3 hPa - - - -
1788598920 20.56° C 57% 1019.3 hPa - - - -
1788598324 20° C 58% 1019.3 hPa - - - -
1788598320 20° C 58% 1019.3 hPa - - - -
1788597719 20° C 58% 1019.3 hPa - - - -

* Rain since midnight (hover to see other rain measurements)
** Current wind speed in m/s (hover to see current wind gust speed)